Location: Gisborne
(38.6530°S, 178.0040°E)
Time: 02:15:36
(UTC+13:00)

Meteor 2-6 Rocket - Visible Passes

Search period start: 13 November 2019 00:00
Search period end: 23 November 2019 00:00
Orbit: 806 x 914 km, 81.3° (Epoch: 11 November)

Date Brightness Start Highest point End Pass type
(mag) Time Alt. Az. Time Alt. Az. Time Alt. Az.
13 Nov 4.4 20:18:41 10° S 20:24:43 67° E 20:30:35 10° NNE visible
13 Nov 6.9 22:03:42 10° SW 22:07:07 16° W 22:10:29 10° WNW visible
14 Nov 6.9 21:54:30 10° SW 21:58:01 16° W 22:01:29 10° WNW visible
15 Nov 6.9 21:45:18 10° SW 21:48:54 17° W 21:52:28 10° WNW visible
16 Nov 6.9 21:36:07 10° SW 21:39:49 17° W 21:43:27 10° WNW visible
17 Nov 6.9 21:26:56 10° SW 21:30:42 18° W 21:34:25 10° NW visible
18 Nov 6.9 21:17:45 10° SW 21:21:37 18° W 21:25:24 10° NW visible
19 Nov 6.9 21:08:34 10° SW 21:12:30 18° W 21:16:22 10° NW visible
20 Nov 6.9 20:59:24 10° SW 21:03:24 19° W 21:07:20 10° NW visible
21 Nov 6.9 20:50:13 10° SW 20:54:17 19° W 20:58:18 10° NW visible
22 Nov 6.9 20:41:03 10° SW 20:45:12 20° W 20:49:15 10° NW visible
